Time,TemperatureF,DewpointF,PressureIn,WindDirection,WindDirectionDegrees,WindSpeedMPH,WindSpeedGustMPH,Humidity,HourlyPrecipIn,Conditions,Clouds,dailyrainin,SolarRadiationWatts/m^2,SoftwareType,DateUTC
2013-07-09 00:02:00,64.0,57.0,-100.00,SE,146,0.0,11.0,79,0.00,,,0.00,0.000000,,2013-07-09 07:02:00,
2013-07-09 00:34:00,65.0,59.0,-100.00,SE,146,1.0,9.0,80,0.00,,,-99.99,0.000000,,2013-07-09 07:34:00,
2013-07-09 00:43:00,65.0,59.0,-100.00,SE,146,1.0,9.0,80,0.00,,,-99.99,0.000000,,2013-07-09 07:43:00,
2013-07-09 00:53:00,65.0,59.0,-100.00,SE,146,1.0,9.0,80,0.00,,,-99.99,0.000000,,2013-07-09 07:53:00,
2013-07-09 01:01:00,65.0,59.0,-100.00,SE,146,1.0,9.0,80,0.00,,,-99.99,0.000000,,2013-07-09 08:01:00,
2013-07-09 01:33:00,63.0,57.0,-100.00,ENE,74,3.0,10.0,80,0.00,,,0.00,0.000000,,2013-07-09 08:33:00,
2013-07-09 01:43:00,63.0,57.0,-100.00,ENE,74,3.0,10.0,80,0.00,,,0.00,0.000000,,2013-07-09 08:43:00,
2013-07-09 01:52:00,63.0,57.0,-100.00,ENE,74,3.0,10.0,80,0.00,,,0.00,0.000000,,2013-07-09 08:52:00,
2013-07-09 02:02:00,63.0,57.0,-100.00,ENE,74,3.0,10.0,80,0.00,,,0.00,0.000000,,2013-07-09 09:02:00,
2013-07-09 02:34:00,61.0,58.0,-100.00,SSW,208,0.0,5.0,90,0.00,,,0.00,0.000000,,2013-07-09 09:34:00,
2013-07-09 02:42:00,61.0,58.0,-100.00,SSW,208,0.0,5.0,90,0.00,,,0.00,0.000000,,2013-07-09 09:42:00,
2013-07-09 02:53:00,61.0,58.0,-100.00,SSW,208,0.0,5.0,90,0.00,,,0.00,0.000000,,2013-07-09 09:53:00,
2013-07-09 03:01:00,61.0,58.0,-100.00,SSW,208,0.0,5.0,90,0.00,,,0.00,0.000000,,2013-07-09 10:01:00,
2013-07-09 03:34:00,57.0,56.0,-100.00,SSW,208,0.0,3.0,95,0.00,,,0.00,0.000000,,2013-07-09 10:34:00,
2013-07-09 03:42:00,57.0,56.0,-100.00,SSW,208,0.0,3.0,95,0.00,,,0.00,0.000000,,2013-07-09 10:42:00,
2013-07-09 03:52:00,57.0,56.0,-100.00,SSW,208,0.0,3.0,95,0.00,,,0.00,0.000000,,2013-07-09 10:52:00,
2013-07-09 04:01:00,57.0,56.0,-100.00,SSW,208,0.0,3.0,95,0.00,,,0.00,0.000000,,2013-07-09 11:01:00,
2013-07-09 04:34:00,55.0,54.0,-100.00,SSE,151,0.0,0.0,97,0.00,,,0.00,0.000000,,2013-07-09 11:34:00,
2013-07-09 04:42:00,55.0,54.0,-100.00,SSE,151,0.0,0.0,97,0.00,,,0.00,0.000000,,2013-07-09 11:42:00,
2013-07-09 04:53:00,55.0,54.0,-100.00,SSE,151,0.0,0.0,97,0.00,,,0.00,0.000000,,2013-07-09 11:53:00,
2013-07-09 05:01:00,55.0,54.0,-100.00,SSE,151,0.0,0.0,97,0.00,,,0.00,0.000000,,2013-07-09 12:01:00,
2013-07-09 05:33:00,54.0,53.0,-100.00,ESE,110,0.0,0.0,98,0.00,,,0.00,0.000000,,2013-07-09 12:33:00,
2013-07-09 05:43:00,54.0,53.0,-100.00,ESE,110,0.0,0.0,98,0.00,,,0.00,0.000000,,2013-07-09 12:43:00,
2013-07-09 05:52:00,54.0,53.0,-100.00,ESE,110,0.0,0.0,98,0.00,,,0.00,0.000000,,2013-07-09 12:52:00,
2013-07-09 06:01:00,54.0,53.0,-100.00,ESE,110,0.0,0.0,98,0.00,,,0.00,0.000000,,2013-07-09 13:01:00,
2013-07-09 06:43:00,52.0,51.0,-100.00,South,171,0.0,0.0,98,0.00,,,0.00,6.000000,,2013-07-09 13:43:00,
2013-07-09 06:53:00,52.0,51.0,-100.00,South,171,0.0,0.0,98,0.00,,,0.00,6.000000,,2013-07-09 13:53:00,
2013-07-09 07:01:00,52.0,51.0,-100.00,South,171,0.0,0.0,98,0.00,,,0.00,6.000000,,2013-07-09 14:01:00,
2013-07-09 07:34:00,57.0,56.0,-100.00,ESE,103,0.0,0.0,98,0.00,,,0.00,76.000000,,2013-07-09 14:34:00,
2013-07-09 07:43:00,57.0,56.0,-100.00,ESE,103,0.0,0.0,98,0.00,,,0.00,76.000000,,2013-07-09 14:43:00,
2013-07-09 07:53:00,57.0,56.0,-100.00,ESE,103,0.0,0.0,98,0.00,,,0.00,76.000000,,2013-07-09 14:53:00,
2013-07-09 08:01:00,57.0,56.0,-100.00,ESE,103,0.0,0.0,98,0.00,,,0.00,76.000000,,2013-07-09 15:01:00,
2013-07-09 08:43:00,63.0,57.0,-100.00,SSE,153,0.0,3.0,81,0.00,,,0.00,204.000000,,2013-07-09 15:43:00,
2013-07-09 08:52:00,63.0,57.0,-100.00,SSE,153,0.0,3.0,81,0.00,,,0.00,204.000000,,2013-07-09 15:52:00,
2013-07-09 09:01:00,63.0,57.0,-100.00,SSE,153,0.0,3.0,81,0.00,,,0.00,204.000000,,2013-07-09 16:01:00,
2013-07-09 12:01:00,78.0,62.0,-100.00,SSW,203,4.0,11.0,57,0.00,,,0.00,797.000000,,2013-07-09 19:01:00,
2013-07-09 12:42:00,82.0,61.0,-100.00,SE,126,5.0,11.0,49,0.00,,,0.00,904.000000,,2013-07-09 19:42:00,
2013-07-09 12:52:00,82.0,61.0,-100.00,SE,126,5.0,11.0,49,0.00,,,0.00,904.000000,,2013-07-09 19:52:00,
2013-07-09 13:43:00,84.0,59.0,-100.00,South,174,3.0,11.0,43,0.00,,,0.00,965.000000,,2013-07-09 20:43:00,
2013-07-09 13:52:00,84.0,59.0,-100.00,South,174,3.0,11.0,43,0.00,,,0.00,965.000000,,2013-07-09 20:52:00,
2013-07-09 14:01:00,84.0,59.0,-100.00,South,174,3.0,11.0,43,0.00,,,0.00,965.000000,,2013-07-09 21:01:00,
2013-07-09 14:42:00,87.0,56.0,-100.00,SW,228,4.0,13.0,35,0.00,,,0.00,981.000000,,2013-07-09 21:42:00,
2013-07-09 14:52:00,87.0,56.0,-100.00,SW,228,4.0,13.0,35,0.00,,,0.00,981.000000,,2013-07-09 21:52:00,
2013-07-09 15:01:00,87.0,56.0,-100.00,SW,228,4.0,13.0,35,0.00,,,0.00,981.000000,,2013-07-09 22:01:00,
2013-07-09 15:33:00,87.0,55.0,-100.00,SE,137,3.0,12.0,34,0.00,,,0.00,947.000000,,2013-07-09 22:33:00,
2013-07-09 15:42:00,87.0,55.0,-100.00,SE,137,3.0,12.0,34,0.00,,,0.00,947.000000,,2013-07-09 22:42:00,
2013-07-09 15:53:00,87.0,55.0,-100.00,SE,137,3.0,12.0,34,0.00,,,0.00,947.000000,,2013-07-09 22:53:00,
2013-07-09 16:01:00,87.0,55.0,-100.00,SE,137,3.0,12.0,34,0.00,,,0.00,947.000000,,2013-07-09 23:01:00,
2013-07-09 16:33:00,88.0,56.0,-100.00,SSE,148,4.0,12.0,34,0.00,,,0.00,849.000000,,2013-07-09 23:33:00,
2013-07-09 16:43:00,88.0,56.0,-100.00,SSE,148,4.0,12.0,34,0.00,,,0.00,849.000000,,2013-07-09 23:43:00,
2013-07-09 16:53:00,88.0,56.0,-100.00,SSE,148,4.0,12.0,34,0.00,,,0.00,849.000000,,2013-07-09 23:53:00,
2013-07-09 17:01:00,88.0,56.0,-100.00,SSE,148,4.0,12.0,34,0.00,,,0.00,849.000000,,2013-07-10 00:01:00,
2013-07-09 17:52:00,90.0,58.0,-100.00,SW,235,3.0,10.0,34,0.00,,,0.00,716.000000,,2013-07-10 00:52:00,
2013-07-09 18:33:00,88.0,60.0,-100.00,SW,229,4.0,11.0,39,-99.99,,,0.00,546.000000,,2013-07-10 01:33:00,
2013-07-09 18:43:00,88.0,60.0,-100.00,SW,229,4.0,11.0,39,-99.99,,,0.00,546.000000,,2013-07-10 01:43:00,
2013-07-09 18:53:00,88.0,60.0,-100.00,SW,229,4.0,11.0,39,-99.99,,,0.00,546.000000,,2013-07-10 01:53:00,
2013-07-09 19:01:00,88.0,60.0,-100.00,SW,229,4.0,11.0,39,-99.99,,,0.00,546.000000,,2013-07-10 02:01:00,
2013-07-09 19:34:00,81.0,55.0,-100.00,SSW,209,4.0,12.0,41,-99.99,,,0.00,163.000000,,2013-07-10 02:34:00,
2013-07-09 19:43:00,81.0,55.0,-100.00,SSW,209,4.0,12.0,41,-99.99,,,0.00,163.000000,,2013-07-10 02:43:00,
2013-07-09 19:53:00,81.0,55.0,-100.00,SSW,209,4.0,12.0,41,-99.99,,,0.00,163.000000,,2013-07-10 02:53:00,
2013-07-09 20:01:00,81.0,55.0,-100.00,SSW,209,4.0,12.0,41,-99.99,,,0.00,163.000000,,2013-07-10 03:01:00,
2013-07-09 20:32:00,78.0,52.0,-100.00,ESE,114,0.0,10.0,40,0.00,,,0.00,28.000000,,2013-07-10 03:32:00,
2013-07-09 20:43:00,78.0,52.0,-100.00,ESE,114,0.0,10.0,40,0.00,,,0.00,28.000000,,2013-07-10 03:43:00,
2013-07-09 20:52:00,78.0,52.0,-100.00,ESE,114,0.0,10.0,40,0.00,,,0.00,28.000000,,2013-07-10 03:52:00,
2013-07-09 21:01:00,78.0,52.0,-100.00,ESE,114,0.0,10.0,40,0.00,,,0.00,28.000000,,2013-07-10 04:01:00,
2013-07-09 21:33:00,69.0,58.0,-100.00,SSE,150,0.0,6.0,67,-99.99,,,0.00,12.000000,,2013-07-10 04:33:00,
2013-07-09 21:43:00,69.0,58.0,-100.00,SSE,150,0.0,6.0,67,-99.99,,,0.00,12.000000,,2013-07-10 04:43:00,
2013-07-09 21:52:00,69.0,58.0,-100.00,SSE,150,0.0,6.0,67,-99.99,,,0.00,12.000000,,2013-07-10 04:52:00,
2013-07-09 22:01:00,69.0,58.0,-100.00,SSE,150,0.0,6.0,67,-99.99,,,0.00,12.000000,,2013-07-10 05:01:00,
2013-07-09 22:32:00,63.0,55.0,-100.00,SSE,156,0.0,5.0,75,0.00,,,0.00,0.000000,,2013-07-10 05:32:00,
2013-07-09 22:42:00,63.0,55.0,-100.00,SSE,156,0.0,5.0,75,0.00,,,0.00,0.000000,,2013-07-10 05:42:00,
2013-07-09 22:53:00,63.0,55.0,-100.00,SSE,156,0.0,5.0,75,0.00,,,0.00,0.000000,,2013-07-10 05:53:00,
2013-07-09 23:01:00,63.0,55.0,-100.00,SSE,156,0.0,5.0,75,0.00,,,0.00,0.000000,,2013-07-10 06:01:00,
2013-07-09 23:33:00,62.0,55.0,-100.00,South,175,1.0,6.0,78,0.00,,,0.00,0.000000,,2013-07-10 06:33:00,
2013-07-09 23:42:00,62.0,55.0,-100.00,South,175,1.0,6.0,78,0.00,,,0.00,0.000000,,2013-07-10 06:42:00,
2013-07-09 23:52:00,62.0,55.0,-100.00,South,175,1.0,6.0,78,0.00,,,0.00,0.000000,,2013-07-10 06:52:00,